Powrót do katalogu

ARIANE 5 R/B

AktywnyHEO
NORAD 37208·ROCKET BODY·🇫🇷 France

Wystrzelony Oct 28, 2010 z Guiana Space Centre

Loading…

Następne Przeloty (najbliższe 24 godziny)

TLE

ŚwieżeSource: Space-Track

Epoka: Sep 14, 2026, 16:09 UTC

1 37208U 10056C   26257.67318687  .00003591  00000-0  72239-3 0  9994
2 37208   2.6285 272.3635 6805183 338.9428   2.9282  2.90475932148424

Śledź ARIANE 5 R/B w czasie rzeczywistym z AllMySat

Download on the App Store